Location: Mascot Post Office (historical)
(40.2645°N, 99.5462°W)
Time: 02:23:30
(UTC+00:00)

Abrixas rocket - Pass Details

Date: 14 July 2020
Orbit: 338 x 346 km, 48.4° (Epoch: 13 August)

Event Time Altitude Azimuth Distance (km) Brightness Sun altitude
Exits shadow 09:11:45 - 309° (NW) 1,707 5.4 -19.3°
Reaches altitude 10° 09:12:52 10° 317° (NW) 1,281 4.8 -19.1°
Maximum altitude 09:15:25 28° 20° (NNE) 669 4.0 -18.8°
Drops below altitude 10° 09:17:57 10° 83° (E) 1,276 5.3 -18.5°
Sets 09:20:06 0° 95° (E) 2,113 6.3 -18.3°
